Other Public Products
Issued by NWS Grand Forks, ND

Home | Current Version | Previous Version | Graphics & Text | Print | Product List | Glossary On
Versions: 1 2 3 4 5 6 7 8 9 10 11 12 13 14 15 16 17 18 19 20 21 22 23 24 25 26 27 28 29 30 31 32 33 34 35 36 37 38 39 40 41 42 43 44 45 46 47 48 49 50
000
FPUS83 KFGF 221610
OPUFGF
PRAIRIE TO PINES WEATHER ROUNDUP
NATIONAL WEATHER SERVICE EASTERN NORTH DAKOTA/GRAND FORKS ND
1000 AM CST SUN JAN 22 2017

 **SATELLITE DATA USED TO AUGMENT SKY COVER AT AUTOMATED STATIONS**
 *****  WEATHER ACROSS EASTERN NORTH DAKOTA  *****

CITY           SKY/WX    TMP DP  RH WIND       PRES   REMARKS
GRAND FORKS    CLOUDY    35  30  82 W7        29.72R
GRAND FORKS AF CLOUDY    34  31  89 NW5       29.72R
GRAND CITY NWS NOT AVBL
BUXTON         NOT AVBL
DEVILS LAKE    CLOUDY    27  26  96 NW14      29.71R FOG     WCI  16
FARGO          CLOUDY    35  32  88 W8        29.73R FOG
WAHPETON ARPT  CLOUDY    32  32 100 W9        29.76R WCI  24
$$

 *****  WEATHER ACROSS CENTRAL AND WESTERN NORTH DAKOTA  *****

CITY           SKY/WX    TMP DP  RH WIND       PRES   REMARKS
JAMESTOWN      CLOUDY    31  29  92 W9        29.73R WCI  23
BISMARCK       CLOUDY    30  27  88 W9        29.79R FOG     WCI  22
MINOT          CLOUDY    31  28  89 W17       29.73R WCI  19
MINOT AFB      CLOUDY    30  26  86 W17       29.73R WCI  18
GARRISON         N/A     30  27  88 NW17      29.75R WCI  18
WILLISTON      CLOUDY    29  26  89 W9        29.79R WCI  20
DICKINSON      FOG       25  23  92 NW14      29.77R VSB 1   WCI  13
HETTINGER      CLOUDY    24  22  91 W15       29.81R WCI  11
$$

 *****  OTHER OBSERVATIONS NORTHEAST NORTH DAKOTA  *****

CITY           SKY/WX    TMP DP  RH WIND       PRES   REMARKS
WALHALLA       NOT AVBL
LANGDON        NOT AVBL
CAVALIER       CLOUDY    34  34 100 W5        29.71R FOG
GRAFTON        CLOUDY    32  32 100 W5        29.73R FOG
CANDO          NOT AVBL
FORT TOTTEN      N/A     27  27 100 NW7       29.95S WCI  19
ROLLA            N/A    N/A N/A N/A MISG        N/A
RUGBY            N/A     28  27  93 NW14      29.72R WCI  17
 ***** THE ABOVE OBSERVATIONS ARE NON NWS ARE NOT QUALITY
        CONTROLLED AND MAY MIS-REPORT RAIN FOR SNOW...
$$

 *****  OTHER OBSERVATIONS SOUTHEAST NORTH DAKOTA *****

CITY           SKY/WX    TMP DP  RH WIND       PRES   REMARKS
COOPERSTOWN    CLOUDY    32  30  93 NW10      29.72R FOG     WCI  24
VALLEY CITY    CLOUDY    32  32 100 W8        29.75R FOG     WCI  25
OAKES          NOT AVBL
GWINNER        CLOUDY    32  32 100 NW8       29.76R WCI  25
SHEYENNE NWR     N/A     32  31  94 NW6       29.95S
BUFFALO        NOT AVBL
WYNDMERE       NOT AVBL
 ***** THE ABOVE OBSERVATIONS ARE NON NWS ARE NOT QUALITY
       CONTROLLED AND MAY MIS-REPORT RAIN FOR SNOW...
$$

  *****  WEATHER ACROSS NORTHERN MINNESOTA  *****

CITY           SKY/WX    TMP DP  RH WIND       PRES   REMARKS
FLAG ISLAND    FOG       34  32  93 CALM      29.70R VSB 3/4
WARROAD        FOG       34  28  80 CALM      29.71R VSB<1/4
ROSEAU         HAZE      34  28  80 CALM      29.70R VSB 1/4
HALLOCK        FOG       34  34 100 CALM      29.70R VSB<1/4
THF RVR FALLS  CLOUDY    35  34  96 CALM      29.71R
HALSTAD        NOT AVBL
FOSSTON        FOG       34  34 100 CALM      29.71R VSB<1/4
BAUDETTE       CLOUDY    34  34 100 CALM      29.69R FOG
WASKISH        FOG       34  34 100 CALM      29.69S VSB 1/2
CROOKSTON      CLOUDY    34  34 100 NW5       29.73R FOG
$$
  *****  WEATHER ACROSS CENTRAL AND WEST MINNESOTA  *****

CITY           SKY/WX    TMP DP  RH WIND       PRES   REMARKS
BEMIDJI        FOG       32  32 100 CALM      29.69R VSB 1/4
PARK RAPIDS    CLOUDY    34  32  92 CALM      29.69R FOG
WADENA         CLOUDY    34  34 100 CALM      29.71R FOG
DETROIT LAKES  FOG       34  34 100 W6        29.73R VSB 1/4
MOORHEAD       FOG       34  32  93 W6        29.74R VSB 1
FERGUS FALLS   FOG       34  34 100 NW6       29.78R VSB 1/4
ELBOW LAKE     SNOW      32  32 100 NW7       29.74R VSB<1/4
MORRIS MN      CLOUDY    34  34 100 NW9       29.74R FOG
STAPLES        CLOUDY    34  34 100 W5        29.71R FOG
WHEATON        CLOUDY    37  37 100 W9        29.78R
$$
  *****  WEATHER ELSEWHERE ACROSS MINNESOTA  *****

CITY           SKY/WX    TMP DP  RH WIND       PRES   REMARKS
DULUTH         CLOUDY    35  34  96 NW6       29.65R FOG
INTRNTL FALLS  FOG       34  33  96 N3        29.68R VSB 1/4
ELY            CLOUDY    34  34 100 CALM      29.66R
CLOQUET        CLOUDY    34  34 100 W3        29.67R FOG
BRAINERD       CLOUDY    34  34 100 W3        29.71R FOG
HIBBING        CLOUDY    32  32 100 CALM      29.66R
ALEXANDRIA     FOG       34  34 100 W6        29.73R VSB 1/4
SAINT CLOUD    CLOUDY    35  35 100 NW5       29.71R FOG
MINNEAPOLIS    CLOUDY    37  34  89 NW6       29.71R
$$

  *****  WEATHER ACROSS SOUTH DAKOTA  *****

CITY           SKY/WX    TMP DP  RH WIND       PRES   REMARKS
SIOUX FALLS    CLOUDY    33  31  92 NW9       29.78R FOG
BROOKINGS      CLOUDY    31  30  96 NW12      29.75R FOG     WCI  22
WATERTOWN      FOG       29  29 100 W9        29.75R VSB 1   WCI  20
HURON          FOG       23  22  96 NW14      29.83R VSB 1/2 WCI  11
SISSETON         N/A     31  30  96 NW10      29.76R WCI  22
ABERDEEN       CLOUDY    28  24  85 W9        29.80R WCI  19
MITCHELL       FAIR      29  26  89 NW12      29.83R WCI  19
PIERRE         FAIR      22  18  85 W8        29.83R WCI  12
MOBRIDGE       CLOUDY    20  17  88 CALM      29.78R
RAPID CITY     FAIR      37  24  59 NW6       29.83R
$$

  *****  SOME WEATHER IN NEARBY STATES *****

CITY           SKY/WX    TMP DP  RH WIND       PRES   REMARKS
GLASGOW MT     CLOUDY    27  25  92 W18       29.82R WCI  14
GREAT FALLS MT CLOUDY    25  20  81 E6        29.82R WCI  18
CHEYENNE WY    FAIR      29  12  49 NW8       29.89R WCI  21
SCOTTSBLUFF NE CLOUDY    30  22  72 W10       29.90R WCI  21
OMAHA NE       CLOUDY    34  29  82 N9        29.77R
DES MOINES IA  CLOUDY    35  33  92 NW9       29.72R FOG
DAVENPORT IA   CLOUDY    32  31  96 CALM      29.68R
CHICAGO IL     CLOUDY    42  39  89 N6        29.64R
EAU CLAIRE WI  CLOUDY    35  34  96 NW6       29.66R
LA CROSSE WI   FOG       39  35  86 CALM      29.67S VSB 1/4
$$

  *****  SOME NATIONAL WEATHER *****

CITY           SKY/WX    TMP DP  RH WIND       PRES   REMARKS
LA GUARDIA NY  FOG       44  43  96 NE12      29.75R VSB 1/2
RALEIGH NC     CLOUDY    54  53  97 NE10      29.57F VSB 1/2
ATLANTA GA     FOG       58  58 100 SE12      29.54S VSB 1/4
NEW ORLEANS LA PTSUNNY   58  50  75 W7        29.52S
OKLAHOMA CITY  PTSUNNY   48  44  86 N26G38    29.65R
ALBUQUERQUE NM FAIR      32  21  64 S5        30.18R
SALT LAKE CITY PTSUNNY   30  23  75 SE14      29.95S WCI  19
LOS ANGELES CA LGT RAIN  50  48  93 E12       30.10R
BOISE ID       MOCLDY    38  25  59 SE15      29.67F
SEATTLE WA     LGT RAIN  45  36  70 W5        29.43R
$$

*** WEATHER ACROSS MANITOBA...SASKATCHEWAN AND ONTARIO ***
                ***ONTARIO***

CITY           SKY/WX    TMP DP  RH WIND       PRES   REMARKS
GERALDTON      FRZ DRZL  32  30  93 NE10      29.70R WCI  24
THUNDER BAY    FLURRIES  36  36 100 VRB2      29.67R
SIOUX LOOKOUT  CLOUDY    34  32  93 E5        29.70R
TORONTO        FOG       39  37  93 E8        29.74S VSB 3/8
BIG TROUT LK   CLOUDY    25  23  93 E6        29.86R WCI  18
PICKLE LAKE    FLURRIES  28  27  93 E7        29.75R WCI  21
DRYDEN         LGT SNOW  32  32 100 NE3       29.69R
KENORA         FOG       34  34 100 VRB2      29.69R VSB 1/8
$$
                *** MANITOBA***

CITY           SKY/WX    TMP DP  RH WIND       PRES   REMARKS
BRANDON        LGT SNOW  30  28  93 W12       29.68R FOG     WCI  21
DAUPHIN        LGT RAIN  32  32 100 W3        29.68R FOG
ISLAND LAKE    CLOUDY    32  30  93 E3        29.76R FOG
PILOT MOUND      N/A     28  28 100 SW6         N/A  WCI  22
THE PAS        FLURRIES  32  32 100 VRB2      29.72R
THOMPSON       LGT SNOW  28  27  93 NE6       29.78R WCI  22
WINNIPEG       FOG       34  34 100 S3        29.70R VSB 1/4
LYNN LAKE      FLURRIES  25  23  93 N8        29.82S WCI  16
CHURCHILL      FOG       21  19  93 E7        29.93R VSB 1   WCI  13
GILLAM         CLOUDY    25  23  93 VRB2      29.84R FOG
$$
                ***SASKATCHEWAN***

CITY           SKY/WX    TMP DP  RH WIND       PRES   REMARKS
ESTEVAN        CLOUDY    27  27 100 W8        29.74R FOG     WCI  18
KINDERSLEY     FLURRIES  21  19  93 N14       29.82R WCI   8
LLOYDMINSTER   LGT SNOW  18  16  93 N9        29.87R FOG     WCI   6
PRINCE ALBERT  LGT SNOW  25  19  80 N9        29.76R FOG     WCI  15
REGINA         CLOUDY    27  23  86 NW12      29.73S WCI  16
YORKTON        FLURRIES  27  25  93 W8        29.67R WC1F1C2F2C3F3C4F4C5F5C6F6C7F7C8F8C9F9CaFaCbFbCcFcCdFdCe!



USA.gov is the U.S. government's official web portal to all federal, state and local government web resources and services.